Meteo pe oră la Dabaizhuang

Astăzi, 10 Aprilie, Sâmbătă

Timp Temperatura Precipitaţii Vânt Presiune Umiditate
00:00 +8°C° 0 mm 4 m/s 767 mmHg 45%
01:00 +8°C° 0 mm 3 m/s 767 mmHg 46%
02:00 +8°C° 0 mm 3 m/s 767 mmHg 48%
03:00 +8°C° 0 mm 3 m/s 767 mmHg 49%
04:00 +8°C° 0 mm 2 m/s 768 mmHg 51%
05:00 +7°C° 0 mm 2 m/s 768 mmHg 52%
06:00 +9°C° 0 mm 2 m/s 768 mmHg 50%
07:00 +11°C° 0 mm 1 m/s 768 mmHg 48%
08:00 +12°C° 0 mm 1 m/s 768 mmHg 45%
09:00 +15°C° 0 mm 2 m/s 768 mmHg 41%
10:00 +18°C° 0 mm 3 m/s 768 mmHg 36%
11:00 +20°C° 0 mm 4 m/s 768 mmHg 32%
12:00 +22°C° 0 mm 5 m/s 767 mmHg 29%
13:00 +23°C° 0 mm 6 m/s 766 mmHg 25%
14:00 +24°C° 0 mm 6 m/s 765 mmHg 23%
15:00 +24°C° 0 mm 6 m/s 765 mmHg 23%
16:00 +24°C° 0 mm 6 m/s 765 mmHg 23%
17:00 +24°C° 0 mm 6 m/s 765 mmHg 23%
18:00 +22°C° 0 mm 5 m/s 765 mmHg 28%
19:00 +20°C° 0 mm 5 m/s 765 mmHg 34%
20:00 +18°C° 0 mm 4 m/s 766 mmHg 39%
21:00 +18°C° 0 mm 4 m/s 766 mmHg 40%
22:00 +18°C° 0 mm 3 m/s 766 mmHg 42%
23:00 +17°C° 0 mm 3 m/s 766 mmHg 43%

Mâine, 11 Aprilie, Duminică

Timp Temperatura Precipitaţii Vânt Presiune Umiditate
00:00 +17°C° 0 mm 3 m/s 766 mmHg 42%
01:00 +15°C° 0 mm 4 m/s 766 mmHg 42%
02:00 +15°C° 0 mm 4 m/s 767 mmHg 41%
03:00 +14°C° 0 mm 4 m/s 767 mmHg 42%
04:00 +14°C° 0 mm 3 m/s 767 mmHg 43%
05:00 +13°C° 0 mm 3 m/s 767 mmHg 45%
06:00 +14°C° 0 mm 3 m/s 767 mmHg 43%
07:00 +15°C° 0 mm 4 m/s 767 mmHg 42%
08:00 +17°C° 0 mm 4 m/s 767 mmHg 40%
09:00 +18°C° 0 mm 4 m/s 767 mmHg 40%
10:00 +19°C° 0 mm 4 m/s 767 mmHg 40%
11:00 +20°C° 0 mm 4 m/s 767 mmHg 39%
12:00 +21°C° 0 mm 4 m/s 767 mmHg 36%
13:00 +21°C° 0 mm 4 m/s 766 mmHg 32%
14:00 +22°C° 0 mm 4 m/s 765 mmHg 29%
15:00 +21°C° 0 mm 4 m/s 765 mmHg 28%
16:00 +20°C° 0 mm 4 m/s 765 mmHg 28%
17:00 +20°C° 0 mm 5 m/s 764 mmHg 27%
18:00 +19°C° 0 mm 4 m/s 764 mmHg 31%
19:00 +18°C° 0 mm 4 m/s 764 mmHg 34%
20:00 +17°C° 0 mm 4 m/s 765 mmHg 37%
21:00 +17°C° 0 mm 3 m/s 764 mmHg 40%
22:00 +16°C° 0 mm 3 m/s 764 mmHg 43%
23:00 +15°C° 0 mm 2 m/s 764 mmHg 46%

Poimâine, 12 Aprilie, Luni

Timp Temperatura Precipitaţii Vânt Presiune Umiditate
00:00 +14°C° 0 mm 3 m/s 764 mmHg 51%
01:00 +13°C° 0 mm 3 m/s 763 mmHg 56%
02:00 +13°C° 0 mm 3 m/s 763 mmHg 62%
03:00 +13°C° 0 mm 3 m/s 763 mmHg 68%
04:00 +12°C° 0 mm 3 m/s 763 mmHg 75%
05:00 +12°C° 0 mm 3 m/s 763 mmHg 81%
06:00 +12°C° 0 mm 3 m/s 762 mmHg 80%
07:00 +12°C° 0 mm 3 m/s 762 mmHg 79%
08:00 +13°C° 0 mm 3 m/s 762 mmHg 78%
09:00 +14°C° 0 mm 3 m/s 762 mmHg 72%
10:00 +16°C° 0 mm 2 m/s 762 mmHg 67%
11:00 +18°C° 0 mm 1 m/s 762 mmHg 61%
12:00 +18°C° 0 mm 2 m/s 762 mmHg 57%
13:00 +19°C° 0 mm 2 m/s 761 mmHg 53%
14:00 +20°C° 0 mm 2 m/s 761 mmHg 49%
15:00 +20°C° 0 mm 2 m/s 760 mmHg 44%
16:00 +21°C° 0 mm 2 m/s 760 mmHg 40%
17:00 +23°C° 0 mm 2 m/s 759 mmHg 36%
18:00 +20°C° 0 mm 4 m/s 760 mmHg 35%
19:00 +19°C° 0 mm 5 m/s 760 mmHg 33%
20:00 +17°C° 0 mm 6 m/s 761 mmHg 32%
21:00 +15°C° 0 mm 7 m/s 762 mmHg 36%
22:00 +14°C° 0 mm 7 m/s 763 mmHg 40%
23:00 +11°C° 0 mm 7 m/s 765 mmHg 45%

13 Aprilie, Marţi

Timp Temperatura Precipitaţii Vânt Presiune Umiditate
00:00 +10°C° 0 mm 6 m/s 765 mmHg 42%
01:00 +9°C° 0 mm 6 m/s 766 mmHg 40%
02:00 +9°C° 0 mm 6 m/s 766 mmHg 38%
03:00 +8°C° 0 mm 5 m/s 767 mmHg 35%
04:00 +7°C° 0 mm 5 m/s 767 mmHg 33%
05:00 +7°C° 0 mm 4 m/s 768 mmHg 31%
06:00 +7°C° 0 mm 4 m/s 768 mmHg 28%
07:00 +8°C° 0 mm 4 m/s 768 mmHg 25%
08:00 +10°C° 0 mm 3 m/s 769 mmHg 23%
09:00 +11°C° 0 mm 3 m/s 769 mmHg 21%
10:00 +12°C° 0 mm 3 m/s 768 mmHg 18%
11:00 +13°C° 0 mm 3 m/s 768 mmHg 16%
12:00 +14°C° 0 mm 3 m/s 767 mmHg 16%
13:00 +15°C° 0 mm 4 m/s 766 mmHg 15%
14:00 +17°C° 0 mm 4 m/s 765 mmHg 14%
15:00 +17°C° 0 mm 4 m/s 765 mmHg 13%
16:00 +17°C° 0 mm 5 m/s 764 mmHg 12%
17:00 +17°C° 0 mm 5 m/s 764 mmHg 10%
18:00 +15°C° 0 mm 4 m/s 764 mmHg 12%
19:00 +14°C° 0 mm 4 m/s 764 mmHg 14%
20:00 +13°C° 0 mm 3 m/s 764 mmHg 16%
21:00 +12°C° 0 mm 3 m/s 764 mmHg 19%
22:00 +11°C° 0 mm 3 m/s 765 mmHg 21%
23:00 +12°C° 0 mm 2 m/s 765 mmHg 24%

14 Aprilie, Miercuri

Timp Temperatura Precipitaţii Vânt Presiune Umiditate
00:00 +10°C° 0 mm 2 m/s 765 mmHg 26%
01:00 +10°C° 0 mm 2 m/s 765 mmHg 29%
02:00 +9°C° 0 mm 2 m/s 764 mmHg 31%
03:00 +9°C° 0 mm 2 m/s 764 mmHg 33%
04:00 +9°C° 0 mm 1 m/s 764 mmHg 35%
05:00 +8°C° 0 mm 1 m/s 764 mmHg 37%
06:00 +10°C° 0 mm 1 m/s 764 mmHg 34%
07:00 +11°C° 0 mm 1 m/s 764 mmHg 31%
08:00 +13°C° 0 mm 1 m/s 764 mmHg 28%
09:00 +15°C° 0 mm 1 m/s 764 mmHg 23%
10:00 +17°C° 0 mm 2 m/s 764 mmHg 19%
11:00 +19°C° 0 mm 2 m/s 764 mmHg 15%
12:00 +20°C° 0 mm 2 m/s 763 mmHg 13%
13:00 +21°C° 0 mm 3 m/s 762 mmHg 11%
14:00 +22°C° 0 mm 4 m/s 761 mmHg 9%
15:00 +22°C° 0 mm 4 m/s 760 mmHg 10%
16:00 +22°C° 0 mm 4 m/s 759 mmHg 10%
17:00 +23°C° 0 mm 5 m/s 759 mmHg 10%
18:00 +21°C° 0 mm 5 m/s 759 mmHg 13%
19:00 +19°C° 0 mm 5 m/s 759 mmHg 16%
20:00 +17°C° 0 mm 5 m/s 759 mmHg 19%
21:00 +16°C° 0 mm 5 m/s 758 mmHg 20%
22:00 +16°C° 0 mm 5 m/s 758 mmHg 20%
23:00 +16°C° 0 mm 6 m/s 758 mmHg 20%

15 Aprilie, Joi

Timp Temperatura Precipitaţii Vânt Presiune Umiditate
00:00 +16°C° 0 mm 6 m/s 758 mmHg 27%
01:00 +15°C° 0 mm 7 m/s 757 mmHg 34%
02:00 +15°C° 0 mm 7 m/s 756 mmHg 41%
03:00 +14°C° 0 mm 7 m/s 756 mmHg 47%
04:00 +14°C° 0 mm 7 m/s 756 mmHg 52%
05:00 +14°C° 0 mm 7 m/s 756 mmHg 57%
06:00 +14°C° 0 mm 6 m/s 756 mmHg 55%
07:00 +15°C° 0 mm 6 m/s 757 mmHg 52%
08:00 +16°C° 0 mm 6 m/s 757 mmHg 49%
09:00 +19°C° 0 mm 6 m/s 757 mmHg 37%
10:00 +20°C° 0 mm 7 m/s 757 mmHg 25%
11:00 +22°C° 0 mm 8 m/s 758 mmHg 13%
12:00 +22°C° 0 mm 8 m/s 758 mmHg 13%
13:00 +22°C° 0 mm 8 m/s 758 mmHg 12%
14:00 +23°C° 0 mm 8 m/s 758 mmHg 11%
15:00 +22°C° 0 mm 8 m/s 758 mmHg 11%
16:00 +22°C° 0 mm 8 m/s 758 mmHg 10%
17:00 +22°C° 0 mm 7 m/s 758 mmHg 9%
18:00 +20°C° 0 mm 6 m/s 759 mmHg 10%
19:00 +18°C° 0 mm 4 m/s 759 mmHg 12%
20:00 +16°C° 0 mm 3 m/s 760 mmHg 14%
21:00 +14°C° 0 mm 3 m/s 761 mmHg 14%
22:00 +14°C° 0 mm 3 m/s 761 mmHg 14%
23:00 +13°C° 0 mm 3 m/s 762 mmHg 14%
Arată mai mult

Formular de consimțământ

Meteoprog și furnizorii noștri de servicii pot stoca și accesa date personale, precum cookies, identificatori de dispozitiv sau alte tehnologii similare pe dispozitivul dumneavoastră și procesa astfel de date pentru a personaliza conținutul și reclamele, dar și pentru a oferi caracteristici de social media și pentru a analiza traficul.

  • Stocarea și/sau accesarea informațiilor pe dispozitivul dumneavoastră

    Cookies, identificatori de dispozitiv sau alte informații pot fi stocate sau accesate pe dispozitiv în scopurile indicate mai sus.

  • Reclame și conținut personalizat, evaluarea reclamelor și a conținutului, informații despre audiențe și dezvoltarea produselor

    Reclamele și conținutul pot fi personalizate pe baza unui profil. Pot fi adăugate date suplimentare pentru a personaliza mai bine reclamele și conținutul. Performanța reclamelor și conținutului poate fi măsurată. Pot fi obținute informații despre utilizatorii care au văzut reclamele și conținutul. Aceste date pot fi utilizate pentru a dezvolta sau îmbunătăți experiența utilizatorilor, sistemele și software-ul.

Dând clic pe ‘Sunt de acord’, permiteți utilizarea cookie-urilor menționate, a identificatorilor de dispozitiv, balizelor web sau altor tehnologii similare. Setările pot fi modificate din browser-ul dispozitivului dumneavoastră.

În anumite scopuri, interesele legitime pot prima asupra consimțământului. Puteți citi mai multe informații în acest sens în Politica privind Confidențialitatea Datelor și Cookie.